DateTimeUTC,F1_A11,F1_S11,BsB_S11,BsG_S11,BsR_S11,BbsB_S11,BbsG_S11,BbsR_S11,BaB_A11,BaG_A11,BaR_A11,Tu_S11,T_S11,Uu_S11,U_S11,P_S11,T1_A11
2021-01-08T21:00:00Z,00000200,21000000,,,,,,,-000.16,-000.41,-000.55,14.0,21.3,,00.0,0639.9,30.6
2021-01-08T21:01:00Z,00000200,21000000,,,,,,,-000.16,0000.10,0000.01,14.0,21.3,,00.0,0639.9,30.6
2021-01-08T21:02:00Z,00000200,21000000,,,,,,,-000.27,-000.52,-000.30,13.9,21.3,,00.0,0639.9,30.6
2021-01-08T21:03:00Z,00000200,61000000,,,,,,,0000.15,0000.62,0000.79,13.9,21.3,,00.0,0639.9,30.6
2021-01-08T21:04:00Z,00000200,41000000,0000.43,0000.25,0000.23,0000.02,0000.07,0000.10,0000.10,-000.03,-000.41,14.0,20.9,,00.0,0640.8,30.6
2021-01-08T21:05:00Z,00000200,01000000,-000.21,0000.39,0000.32,0000.03,0000.31,0000.09,0000.35,0000.17,0000.28,14.0,20.9,,00.0,0640.8,30.6
2021-01-08T21:06:00Z,00000200,01000000,-000.22,0000.02,0000.20,-000.01,-000.03,0000.09,0000.07,-000.04,-000.18,14.0,20.9,,00.0,0640.8,30.6
2021-01-08T21:07:00Z,00000200,01000000,0000.77,0000.16,0000.18,0000.18,-000.11,0000.08,-000.00,0000.34,0000.21,14.1,20.9,,00.0,0640.9,30.6
2021-01-08T21:08:00Z,00000200,01000000,0000.94,0000.21,0000.07,-000.24,-000.27,0000.35,0000.35,-000.23,0000.36,14.1,20.9,,00.0,0640.8,30.6
2021-01-08T21:09:00Z,00000200,01000000,0000.54,0000.31,0000.19,0000.44,0000.09,0000.09,-000.03,0000.26,-000.15,14.1,20.9,,00.0,0640.8,30.6
2021-01-08T21:10:00Z,00000200,01000000,0000.34,0000.44,0000.06,0000.15,0000.05,-000.14,-000.31,-000.03,-000.02,14.1,20.9,,00.0,0640.8,30.6
2021-01-08T21:11:00Z,00000200,01000000,0000.47,0000.19,0000.21,-000.16,0000.09,-000.06,0000.38,-000.02,-000.09,14.2,20.9,,00.0,0640.9,30.6
2021-01-08T21:12:00Z,00000200,01000000,0001.05,0000.44,0000.46,-000.14,0000.19,0000.20,0000.28,0000.19,0000.19,14.2,20.9,,00.0,0640.9,30.6
2021-01-08T21:13:00Z,00000200,01000000,0000.76,0000.21,0000.08,-000.89,0000.04,0000.07,-000.15,0000.16,0000.30,14.2,20.9,,00.0,0640.9,30.6
2021-01-08T21:14:00Z,00000200,01000000,0001.25,0000.22,0000.13,0000.02,0000.11,0000.17,0000.10,-000.12,-000.27,14.2,20.9,,00.0,0641.0,30.6
2021-01-08T21:15:00Z,00000200,01000000,0001.11,0000.36,0000.10,0000.05,0000.01,-000.03,0000.06,0000.06,-000.04,14.3,20.9,,00.0,0641.0,30.6
2021-01-08T21:16:00Z,00000200,01000000,0000.39,0000.62,0000.27,-000.34,0000.05,0000.10,-000.08,0000.27,0000.16,14.2,20.9,,00.0,0641.0,30.6
2021-01-08T21:17:00Z,00000200,01000000,0000.17,0000.29,0000.12,-000.42,0000.18,0000.21,0000.09,-000.06,-000.07,14.2,20.8,,00.0,0641.0,30.6
2021-01-08T21:18:00Z,00000200,01000000,0000.73,0000.45,0000.03,-000.31,0000.35,0000.07,-000.13,-000.06,-000.16,14.1,20.8,,00.0,0641.1,30.6
2021-01-08T21:19:00Z,00000200,01000000,0000.41,0000.54,0000.44,-000.21,0000.01,0000.32,0000.25,0000.26,0000.34,14.1,20.8,,00.0,0641.1,30.6
2021-01-08T21:20:00Z,00000200,01000000,0000.92,0000.41,0000.11,-000.56,0000.08,0000.17,0000.11,-000.03,0000.01,14.1,20.8,,00.0,0641.1,30.6
2021-01-08T21:21:00Z,00000200,01000000,-000.22,0000.28,0000.01,0000.95,0000.07,0000.24,0000.09,0000.25,0000.05,14.2,20.8,,00.0,0641.1,30.6
2021-01-08T21:22:00Z,00000200,01000000,0000.21,0000.23,0000.17,-000.10,-000.05,0000.03,0000.33,0000.11,-000.05,14.2,20.8,,00.0,0641.2,30.6
2021-01-08T21:23:00Z,00000200,01000000,0001.52,0000.33,0000.23,0000.10,0000.16,0000.20,-000.51,0000.07,0000.45,14.2,20.8,,00.0,0641.2,30.6
2021-01-08T21:24:00Z,00000200,01000000,0000.17,0000.35,0000.17,-000.07,0000.03,0000.02,0000.66,0000.05,-000.16,14.2,20.8,,00.0,0641.2,30.6
2021-01-08T21:25:00Z,00000200,01000000,0000.24,0000.15,0000.26,-000.09,0000.21,0000.15,0000.29,0000.05,0000.23,14.3,20.9,,00.0,0641.2,30.6
2021-01-08T21:26:00Z,00000200,01000000,0000.58,0000.35,0000.01,0000.01,0000.07,-000.07,-000.29,-000.21,-000.27,14.3,20.9,,00.0,0641.3,30.6
2021-01-08T21:27:00Z,00000200,01000000,0000.85,0000.67,0000.14,-000.15,0000.01,0000.18,0000.40,0000.11,0000.28,14.3,20.9,,00.0,0641.3,30.6
2021-01-08T21:28:00Z,00000200,01000000,0000.62,0000.54,0000.55,0000.15,0000.18,0000.39,-000.07,0000.41,0000.32,14.4,20.9,,00.0,0641.3,30.6
2021-01-08T21:29:00Z,00000200,01010000,-000.05,0000.56,0000.09,-000.27,0000.01,0000.04,0000.25,0000.01,-000.08,14.4,20.9,,00.0,0641.3,30.6
2021-01-08T21:30:00Z,00000200,01000000,0001.12,0000.19,0000.27,0000.30,0000.04,0000.36,-000.15,0000.28,-000.41,14.4,20.9,,00.0,0641.3,30.6
2021-01-08T21:31:00Z,00000200,01000000,0000.68,0000.11,0000.25,0000.20,-000.10,0000.26,0000.28,-000.28,0000.54,14.4,20.9,,00.0,0641.3,30.6
2021-01-08T21:32:00Z,00000200,01000000,0001.09,0000.20,0000.15,0000.20,0000.11,0000.32,-000.29,-000.01,-000.18,14.4,20.9,,00.0,0641.4,30.6
2021-01-08T21:33:00Z,00000200,01000000,0000.58,0000.33,0000.10,-000.31,0000.16,0000.11,0000.00,-000.08,0000.12,14.4,20.9,,00.0,0641.3,30.6
2021-01-08T21:34:00Z,00000200,01000000,0001.16,0000.37,0000.34,-000.48,-000.02,0000.28,-000.05,0000.18,-000.24,14.4,20.9,,00.0,0641.3,30.6
2021-01-08T21:35:00Z,00000200,01000000,0000.32,0000.32,0000.49,0000.08,0000.19,0000.08,0000.27,0000.43,-000.03,14.4,20.9,,00.0,0641.3,30.6
2021-01-08T21:36:00Z,00000200,01000000,0000.96,0000.24,0000.11,-000.24,-000.01,0000.08,0000.03,-000.30,0000.48,14.4,20.9,,00.0,0641.4,30.6
2021-01-08T21:37:00Z,00000200,01000000,0000.53,0000.43,0000.07,-000.47,-000.06,0000.00,0000.48,0000.16,0000.28,14.4,20.9,,00.0,0641.4,30.6
2021-01-08T21:38:00Z,00000200,01000000,0000.67,0000.39,0000.29,0000.29,0000.05,0000.40,-000.20,0000.10,-000.36,14.4,20.9,,00.0,0641.4,30.6
2021-01-08T21:39:00Z,00000200,01000000,0000.85,0000.17,0000.37,0000.15,0000.06,0000.10,-000.04,0000.04,0000.29,14.4,20.9,,00.0,0641.4,30.6
2021-01-08T21:40:00Z,00000200,01000000,0000.46,0000.46,0000.29,0000.45,0000.04,0000.08,0000.32,0000.13,-000.04,14.4,20.9,,00.0,0641.4,30.6
2021-01-08T21:41:00Z,00000200,01000000,0000.29,0000.41,0000.17,0000.25,-000.09,0000.03,0000.06,0000.04,0000.17,14.5,20.9,,00.0,0641.5,30.7
2021-01-08T21:42:00Z,00000200,01000000,0000.72,0000.24,-000.02,0000.11,0000.02,-000.12,-000.07,0000.10,0000.23,14.5,20.9,,00.0,0641.5,30.7
2021-01-08T21:43:00Z,00000200,01000000,0000.30,0000.17,0000.18,-000.34,-000.02,0000.29,-000.06,0000.37,-000.32,14.5,21.0,,00.0,0641.5,30.7
2021-01-08T21:44:00Z,00000200,01000000,0000.21,0000.37,0000.24,-000.24,0000.24,0000.10,0000.17,0000.06,-000.01,14.5,21.0,,00.0,0641.5,30.7
2021-01-08T21:45:00Z,00000200,01000000,0001.43,0000.69,0000.18,0000.05,-000.09,-000.02,0000.22,-000.14,0000.21,14.6,21.0,,00.0,0641.5,30.7
2021-01-08T21:46:00Z,00000200,01000000,0000.69,0000.37,0000.39,0000.13,-000.25,0000.09,0000.09,-000.27,0000.22,14.6,21.0,,00.0,0641.5,30.7
2021-01-08T21:47:00Z,00000200,01000000,0000.82,0000.40,0000.31,-000.52,-000.24,0000.17,0000.27,0000.36,-000.12,14.6,21.0,,00.0,0641.5,30.7
2021-01-08T21:48:00Z,00000200,01000000,0001.08,0000.47,0000.37,0000.37,0000.17,0000.27,-000.08,0000.16,0000.28,14.6,21.0,,00.0,0641.5,30.7
2021-01-08T21:49:00Z,00000200,01000000,0000.98,0000.35,0000.50,0000.54,0000.02,0000.34,0000.03,0000.13,-000.05,14.6,21.0,,00.0,0641.4,30.7
2021-01-08T21:50:00Z,00000200,01000000,0000.19,0000.35,0000.41,0000.14,-000.24,0000.06,0000.24,-000.25,-000.04,14.7,21.0,,00.0,0641.4,30.7
2021-01-08T21:51:00Z,00000200,01000000,0000.70,0000.45,0000.21,-000.03,-000.01,0000.12,-000.13,0000.33,0000.09,14.7,21.1,,00.0,0641.4,30.7
2021-01-08T21:52:00Z,00000200,01000000,0000.60,0000.54,0000.34,-000.18,-000.08,0000.14,0000.14,0000.11,-000.07,14.7,21.1,,00.0,0641.4,30.7
2021-01-08T21:53:00Z,00000200,01000000,0000.99,0000.26,0000.13,0000.33,0000.16,0000.21,0000.28,0000.36,0000.27,14.7,21.1,,00.0,0641.4,30.7
2021-01-08T21:54:00Z,00000200,01000000,0000.90,0000.23,0000.30,0000.44,-000.09,0000.44,0000.10,0000.03,0000.10,14.7,21.1,,00.0,0641.4,30.7
2021-01-08T21:55:00Z,00000200,01000000,0000.54,0000.08,0000.17,-000.14,0000.09,0000.28,0000.12,-000.04,0000.04,14.7,21.1,,00.0,0641.4,30.7
2021-01-08T21:56:00Z,00000200,01000000,0000.72,0000.39,-000.09,-000.02,-000.07,0000.10,-000.13,0000.07,-000.18,14.7,21.1,,00.0,0641.4,30.7
2021-01-08T21:57:00Z,00000200,41000000,,,,,,,0000.55,0000.77,0000.50,14.8,21.2,,00.0,0641.5,30.7
2021-01-08T21:58:00Z,00000200,61000000,,,,,,,0000.21,-000.13,0000.02,14.4,21.3,,00.0,0640.5,30.7
2021-01-08T21:59:00Z,00000200,21000000,,,,,,,-000.41,0000.04,0000.02,14.3,21.4,,00.0,0640.5,30.7
